Regional Weather Roundup
Issued by NWS Newport/Morehead, NC

Current Version | Previous Version | Text Only | Print | Product List | Glossary On
Versions: 1 2 3 4 5 6 7 8 9 10 11 12 13 14 15 16 17 18 19 20 21 22 23 24 25 26 27 28 29 30 31 32 33 34 35 36 37 38 39 40 41 42 43 44 45 46 47 48 49 50
122
ASUS42 KMHX 180725
RWRMHX
WEATHER ROUNDUP FOR EASTERN NORTH CAROLINA
NATIONAL WEATHER SERVICE NEWPORT/MOREHEAD CITY NC
200 AM EST SAT NOV 18 2017

NOTE: "FAIR" INDICATES FEW OR NO CLOUDS BELOW 12,000 FEET
WITH NO SIGNIFICANT WEATHER AND/OR OBSTRUCTIONS TO VISIBILITY

NCZ015>017-031-032-045>047-102-103-180800-
NORTH COAST

CITY           SKY/WX    TMP DP  RH WIND       PRES   REMARKS
EDENTON        CLEAR     35  33  92 CALM      30.15R
ELIZABETH CITY CLEAR     34  34 100 CALM      30.13F
KITTY HAWK     SUNNY     44  34  69 CALM      30.12S
MANTEO         CLEAR     36  36  98 CALM      30.13F FOG

$$

NCZ045>047-081-094-103-104-180800-
CENTRAL COAST

CITY           SKY/WX    TMP DP  RH WIND       PRES   REMARKS
FRISCO         CLEAR     37  36  96 CALM      30.13F

$$

NCZ095-097-098-100-101-180800-
SOUTHERN COAST

CITY           SKY/WX    TMP DP  RH WIND       PRES   REMARKS
BEAUFORT       CLEAR     36  35  96 CALM      30.14S
CEDAR ISLAND   NOT AVBL
JACKSONVILLE   NOT AVBL
PINEY ISLAND   NOT AVBL
WILMINGTON     CLEAR     38  36  92 CALM      30.14S


$$

NCZ011>013-027>030-043-044-078>080-089-090>093-098-180800-
COASTAL PLAIN

CITY           SKY/WX    TMP DP  RH WIND       PRES   REMARKS
AHOSKIE        CLEAR     29  29 100 CALM      30.14S
CLINTON        CLEAR     33  33 100 CALM      30.14F
ELIZABETHTOWN  NOT AVBL
GOLDSBORO      CLEAR     33  30  89 CALM      30.12F
GREENVILLE     CLEAR     32  32 100 CALM      30.15F FOG
HAVELOCK       NOT AVBL
KENANSVILLE    CLEAR     28  28 100 CALM      30.15S
KINSTON        CLEAR     32  31  98 CALM      30.14F
NEW BERN       PTCLDY    33  33 100 CALM      30.16S FOG
RICHLANDS      CLEAR     31  30  96 CALM      30.14F
ROCKY MOUNT    CLEAR     31  31 100 CALM      30.13F
WASHINGTON     MOCLDY    34  32  94 CALM      30.16S
WHITEVILLE     CLEAR     35  34  95 CALM      30.13F

$$

AMZ130-135-150-152-154-156-158-170-250-252-270-ANZ085-086-088-633-658-670-180800-
MARINE OBSERVATIONS

STATION/POSITION TIME  TEMP    WIND        PRES    WAVE   SWELL
                       AIR SEA DIR/SP/G            HT/PER HT/PER
                 (UTC) (F)     (DEG/KT/KT) (MB)    (FT/S) (FT/S)
CHESAPEAKE LIGHT NOT AVBL
64 E VA BEACH    0650   53 60  240/  4/  8 1020.2    3/12   3/12
DUCK             NOT AVBL
2 E DUCK         0700      58                N/A     3/12   2/12
OREGON INLET     NOT AVBL
13E OREGON INLT  0648      62                N/A     4/12   2/12
HATTERAS CG      NOT AVBL
DIAMOND BUOY     0710   55 64   20/  4/  6 1020.1
CAPE LOOKOUT     0700   50     360/  6/  7 1020.6
BEAUFORT LAB     NOT AVBL
30 SE NEW RVR IN 0708   58 70   50/  4/  8 1020.2
30 SE NEW RVR IN 0700      70                N/A     3/10   2/11
27 SE WRIGHTSVLE 0708   60 67   50/  4/ 10 1019.6
5 SE WRIGHTSVLE  0708   58 64  190/  4/ 10 1019.9
225 S CAPE HAT   0650   68 77   70/ 10/ 16 1018.6    8/ 8   7/ 8
41 SE CHARLESTON 0710   66 76   80/  2/  4 1018.8

$$




USA.gov is the U.S. government's official web portal to all federal, state and local government web resources and services.